QPF
0.03 0.03 0.04 0.05 0.05 0.04 0.03 0.03 0.03 0.02 0.04 0.07 0.06 0.06 0.06 0.08 0.05 0.03 0.03 0.02 0.01 0.00 0.00 0.01 0.01 0.01 0.01 0.01 0.01 0.00 0.00 0.00 0.00 0.00 0.00 0.00 0.00 0.00 0.00 0.00 0.00 0.00 0.00 0.00
0.04 0.03 0.03 0.03 0.02 0.02 0.02 0.02 0.02 0.02 0.04 0.06 0.05 0.04 0.05 0.06 0.07 0.02 0.02 0.02 0.01 0.01 0.00 0.00 0.01 0.00 0.00 0.00 0.00 0.00 0.00 0.00 0.00 0.00 0.00 0.00 0.00 0.00 0.00 0.00 0.00 0.00 0.00 0.00
0.07 0.05 0.05 0.03 0.02 0.02 0.02 0.02 0.03 0.03 0.05 0.07 0.05 0.03 0.03 0.03 0.06 0.03 0.02 0.02 0.02 0.01 0.01 0.01 0.00 0.00 0.00 0.00 0.00 0.00 0.00 0.00 0.00 0.00 0.00 0.00 0.00 0.00 0.00 0.00 0.00 0.00 0.00 0.00
0.07 0.09 0.08 0.04 0.03 0.03 0.03 0.03 0.03 0.04 0.06 0.08 0.05 0.05 0.05 0.06 0.05 0.05 0.02 0.02 0.02 0.01 0.01 0.01 0.01 0.00 0.00 0.00 0.00 0.00 0.00 0.01 0.00 0.00 0.01 0.01 0.00 0.00 0.00 0.00 0.00 0.00 0.00 0.00
0.09 0.11 0.07 0.03 0.05 0.05 0.07 0.06 0.07 0.07 0.07 0.09 0.10 0.09 0.08 0.07 0.09 0.07 0.04 0.03 0.02 0.02 0.01 0.01 0.01 0.01 0.00 0.01 0.01 0.01 0.01 0.01 0.00 0.00 0.01 0.01 0.01 0.00 0.00 0.00 0.00 0.00 0.00 0.00
0.07 0.07 0.06 0.04 0.03 0.04 0.06 0.11 0.15 0.15 0.14 0.12 0.11 0.11 0.09 0.06 0.05 0.05 0.05 0.05 0.03 0.02 0.02 0.02 0.02 0.02 0.02 0.01 0.01 0.01 0.01 0.00 0.01 0.01 0.01 0.01 0.00 0.00 0.00 0.00 0.00 0.00 0.00 0.00
0.09 0.09 0.06 0.04 0.04 0.05 0.10 0.14 0.23 0.28 0.26 0.20 0.18 0.14 0.09 0.06 0.04 0.03 0.03 0.04 0.03 0.03 0.03 0.04 0.05 0.04 0.03 0.02 0.02 0.02 0.02 0.01 0.01 0.01 0.01 0.01 0.00 0.00 0.00 0.00 0.00 0.00 0.00 0.00
0.12 0.14 0.11 0.08 0.08 0.11 0.17 0.20 0.26 0.29 0.31 0.27 0.24 0.21 0.16 0.11 0.05 0.03 0.02 0.03 0.03 0.03 0.03 0.03 0.04 0.04 0.05 0.05 0.05 0.04 0.03 0.02 0.01 0.01 0.01 0.01 0.01 0.01 0.00 0.00 0.01 0.01 0.00 0.00
0.14 0.15 0.13 0.13 0.16 0.19 0.24 0.28 0.31 0.23 0.20 0.19 0.18 0.19 0.18 0.14 0.09 0.05 0.04 0.04 0.04 0.04 0.05 0.08 0.08 0.09 0.09 0.08 0.08 0.07 0.05 0.04 0.04 0.03 0.03 0.03 0.03 0.03 0.02 0.01 0.01 0.01 0.01 0.01
0.18 0.18 0.16 0.16 0.14 0.21 0.34 0.33 0.25 0.18 0.17 0.16 0.13 0.12 0.09 0.07 0.05 0.04 0.03 0.04 0.03 0.03 0.05 0.08 0.08 0.07 0.08 0.09 0.09 0.07 0.07 0.07 0.07 0.07 0.06 0.05 0.05 0.05 0.04 0.03 0.02 0.02 0.02 0.02
0.13 0.15 0.14 0.13 0.13 0.14 0.22 0.21 0.15 0.14 0.14 0.12 0.08 0.06 0.03 0.02 0.01 0.01 0.02 0.03 0.04 0.04 0.05 0.06 0.06 0.07 0.08 0.10 0.10 0.08 0.07 0.09 0.09 0.07 0.06 0.06 0.05 0.03 0.03 0.02 0.03 0.03 0.02 0.03
0.14 0.15 0.14 0.11 0.13 0.14 0.13 0.11 0.09 0.12 0.11 0.07 0.05 0.07 0.05 0.02 0.02 0.02 0.03 0.05 0.06 0.08 0.10 0.12 0.13 0.17 0.17 0.16 0.16 0.15 0.12 0.12 0.11 0.10 0.09 0.08 0.06 0.05 0.05 0.04 0.04 0.04 0.04 0.03
0.08 0.09 0.11 0.12 0.12 0.13 0.09 0.09 0.09 0.09 0.11 0.10 0.08 0.06 0.04 0.03 0.03 0.04 0.05 0.06 0.07 0.08 0.13 0.15 0.14 0.16 0.15 0.12 0.11 0.12 0.11 0.11 0.11 0.10 0.10 0.10 0.09 0.08 0.07 0.07 0.07 0.06 0.05 0.05
0.06 0.06 0.10 0.13 0.12 0.14 0.14 0.14 0.13 0.10 0.12 0.12 0.10 0.07 0.04 0.02 0.02 0.04 0.05 0.06 0.07 0.07 0.08 0.10 0.11 0.09 0.08 0.08 0.08 0.07 0.07 0.07 0.07 0.07 0.07 0.08 0.08 0.09 0.08 0.07 0.05 0.05 0.05 0.04
0.06 0.06 0.09 0.09 0.09 0.14 0.16 0.13 0.11 0.13 0.15 0.12 0.07 0.06 0.05 0.05 0.04 0.04 0.04 0.05 0.06 0.06 0.04 0.04 0.05 0.05 0.05 0.05 0.05 0.05 0.04 0.04 0.04 0.05 0.05 0.06 0.06 0.07 0.07 0.06 0.05 0.04 0.03 0.02
0.07 0.06 0.09 0.10 0.11 0.12 0.11 0.10 0.11 0.11 0.10 0.09 0.07 0.06 0.06 0.08 0.08 0.07 0.06 0.06 0.07 0.08 0.06 0.04 0.03 0.03 0.02 0.02 0.03 0.04 0.04 0.04 0.04 0.04 0.04 0.05 0.05 0.05 0.04 0.04 0.03 0.02 0.02 0.02
0.05 0.06 0.08 0.11 0.15 0.13 0.13 0.10 0.09 0.08 0.07 0.08 0.09 0.06 0.04 0.05 0.08 0.09 0.08 0.06 0.05 0.06 0.04 0.03 0.02 0.03 0.03 0.04 0.04 0.04 0.04 0.04 0.03 0.03 0.03 0.03 0.03 0.02 0.02 0.02 0.02 0.03 0.02 0.02
0.06 0.05 0.05 0.08 0.12 0.13 0.13 0.13 0.14 0.14 0.14 0.15 0.15 0.10 0.06 0.05 0.05 0.07 0.07 0.06 0.04 0.04 0.03 0.03 0.03 0.04 0.04 0.05 0.06 0.05 0.03 0.02 0.02 0.02 0.02 0.02 0.02 0.02 0.02 0.03 0.03 0.02 0.02 0.01
0.06 0.06 0.06 0.07 0.07 0.08 0.10 0.12 0.11 0.11 0.11 0.11 0.13 0.10 0.07 0.05 0.04 0.04 0.05 0.05 0.04 0.03 0.02 0.01 0.01 0.01 0.01 0.01 0.01 0.01 0.01 0.01 0.02 0.02 0.02 0.02 0.03 0.02 0.03 0.03 0.02 0.02 0.01 0.01
0.06 0.08 0.09 0.07 0.06 0.07 0.08 0.08 0.07 0.06 0.06 0.06 0.07 0.07 0.06 0.04 0.03 0.03 0.03 0.03 0.03 0.02 0.01 0.01 0.00 0.00 0.01 0.01 0.01 0.01 0.01 0.01 0.01 0.01 0.01 0.01 0.01 0.02 0.02 0.02 0.01 0.01 0.01 0.01
0.06 0.07 0.08 0.07 0.07 0.06 0.07 0.08 0.08 0.08 0.07 0.09 0.09 0.07 0.07 0.05 0.03 0.02 0.02 0.01 0.01 0.01 0.01 0.01 0.01 0.01 0.01 0.01 0.00 0.00 0.01 0.01 0.01 0.01 0.01 0.02 0.01 0.01 0.01 0.01 0.01 0.00 0.00 0.00
0.06 0.06 0.08 0.09 0.07 0.05 0.04 0.05 0.05 0.06 0.07 0.08 0.09 0.09 0.10 0.08 0.05 0.03 0.02 0.01 0.01 0.01 0.01 0.00 0.01 0.00 0.00 0.00 0.00 0.00 0.01 0.01 0.01 0.02 0.02 0.02 0.02 0.02 0.02 0.02 0.01 0.01 0.01 0.01
0.04 0.04 0.04 0.06 0.06 0.05 0.05 0.05 0.04 0.04 0.04 0.05 0.05 0.09 0.10 0.07 0.05 0.04 0.02 0.01 0.01 0.01 0.00 0.00 0.00 0.00 0.00 0.00 0.00 0.00 0.00 0.01 0.01 0.01 0.01 0.01 0.01 0.01 0.01 0.01 0.02 0.02 0.02 0.03
0.04 0.03 0.02 0.02 0.03 0.04 0.05 0.05 0.03 0.03 0.03 0.04 0.05 0.06 0.08 0.07 0.05 0.04 0.03 0.02 0.01 0.01 0.01 0.00 0.00 0.00 0.00 0.00 0.00 0.01 0.01 0.00 0.00 0.01 0.01 0.01 0.01 0.01 0.01 0.01 0.02 0.03 0.03 0.04
0.04 0.04 0.03 0.03 0.02 0.03 0.03 0.03 0.02 0.02 0.02 0.02 0.02 0.03 0.03 0.03 0.03 0.02 0.02 0.02 0.01 0.01 0.01 0.00 0.00 0.00 0.00 0.00 0.00 0.00 0.00 0.00 0.00 0.01 0.01 0.01 0.01 0.01 0.02 0.03 0.03 0.03 0.03 0.03
0.02 0.02 0.02 0.01 0.01 0.02 0.02 0.02 0.02 0.01 0.01 0.01 0.00 0.00 0.00 0.01 0.01 0.01 0.01 0.01 0.01 0.01 0.01 0.00 0.00 0.01 0.01 0.00 0.01 0.01 0.00 0.00 0.00 0.01 0.01 0.02 0.02 0.01 0.02 0.03 0.03 0.04 0.03 0.02
0.02 0.01 0.01 0.01 0.00 0.01 0.01 0.01 0.01 0.01 0.01 0.01 0.01 0.00 0.01 0.01 0.01 0.02 0.02 0.02 0.03 0.04 0.04 0.03 0.02 0.02 0.01 0.01 0.01 0.00 0.00 0.01 0.01 0.01 0.01 0.01 0.01 0.01 0.00 0.01 0.01 0.02 0.02 0.01
MSLP
1008.07 1008.61 1009.15 1009.65 1010.05 1010.30 1010.34 1010.14 1009.70 1009.06 1008.27 1007.43 1006.64 1005.99 1005.55 1005.36 1005.44 1005.77 1006.29 1006.96 1007.69 1008.44 1009.16 1009.82 1010.43 1010.99 1011.50 1011.98 1012.44 1012.88 1013.30 1013.69 1014.04 1014.35 1014.62 1014.86 1015.08 1015.29 1015.49 1015.71 1015.93 1016.15 1016.36 1016.56
1008.23 1008.63 1008.99 1009.27 1009.43 1009.43 1009.25 1008.88 1008.35 1007.68 1006.95 1006.21 1005.55 1005.04 1004.72 1004.62 1004.75 1005.08 1005.57 1006.18 1006.86 1007.56 1008.27 1008.95 1009.61 1010.23 1010.84 1011.41 1011.96 1012.48 1012.96 1013.38 1013.75 1014.07 1014.34 1014.58 1014.79 1015.00 1015.21 1015.43 1015.65 1015.88 1016.09 1016.29
1008.47 1008.75 1008.95 1009.04 1008.99 1008.79 1008.44 1007.95 1007.34 1006.65 1005.95 1005.28 1004.71 1004.28 1004.03 1003.97 1004.09 1004.38 1004.81 1005.35 1005.96 1006.61 1007.28 1007.97 1008.66 1009.35 1010.03 1010.70 1011.33 1011.92 1012.46 1012.93 1013.34 1013.68 1013.97 1014.22 1014.45 1014.66 1014.88 1015.10 1015.33 1015.55 1015.75 1015.94
1008.81 1008.98 1009.04 1008.98 1008.79 1008.45 1007.97 1007.38 1006.71 1006.00 1005.29 1004.65 1004.11 1003.71 1003.46 1003.38 1003.47 1003.69 1004.05 1004.50 1005.04 1005.64 1006.29 1006.98 1007.70 1008.44 1009.19 1009.93 1010.64 1011.30 1011.89 1012.42 1012.86 1013.24 1013.56 1013.83 1014.08 1014.31 1014.54 1014.76 1014.98 1015.18 1015.36 1015.51
1009.18 1009.25 1009.21 1009.06 1008.76 1008.33 1007.78 1007.12 1006.40 1005.66 1004.93 1004.27 1003.71 1003.28 1002.99 1002.86 1002.87 1003.03 1003.30 1003.69 1004.17 1004.74 1005.38 1006.08 1006.83 1007.62 1008.42 1009.21 1009.97 1010.68 1011.32 1011.89 1012.37 1012.79 1013.14 1013.44 1013.71 1013.96 1014.19 1014.41 1014.61 1014.79 1014.92 1015.02
1009.49 1009.47 1009.37 1009.15 1008.81 1008.34 1007.75 1007.06 1006.30 1005.52 1004.75 1004.04 1003.42 1002.93 1002.58 1002.38 1002.32 1002.41 1002.63 1002.98 1003.44 1004.00 1004.64 1005.36 1006.14 1006.96 1007.79 1008.61 1009.40 1010.13 1010.80 1011.38 1011.89 1012.33 1012.71 1013.04 1013.33 1013.59 1013.83 1014.04 1014.22 1014.35 1014.44 1014.48
1009.63 1009.55 1009.40 1009.16 1008.81 1008.33 1007.74 1007.04 1006.27 1005.45 1004.64 1003.87 1003.19 1002.63 1002.21 1001.94 1001.83 1001.88 1002.08 1002.42 1002.89 1003.47 1004.15 1004.90 1005.70 1006.53 1007.37 1008.18 1008.96 1009.68 1010.33 1010.91 1011.42 1011.87 1012.26 1012.60 1012.91 1013.18 1013.42 1013.62 1013.77 1013.86 1013.90 1013.88
1009.52 1009.39 1009.22 1008.98 1008.65 1008.21 1007.64 1006.96 1006.19 1005.37 1004.53 1003.71 1002.98 1002.36 1001.89 1001.58 1001.45 1001.50 1001.71 1002.09 1002.60 1003.22 1003.93 1004.70 1005.51 1006.33 1007.14 1007.92 1008.65 1009.31 1009.92 1010.46 1010.94 1011.37 1011.76 1012.11 1012.43 1012.70 1012.93 1013.12 1013.24 1013.30 1013.30 1013.24
1009.12 1008.95 1008.78 1008.56 1008.28 1007.89 1007.39 1006.76 1006.02 1005.22 1004.37 1003.55 1002.79 1002.15 1001.66 1001.35 1001.24 1001.32 1001.58 1002.01 1002.58 1003.26 1004.00 1004.79 1005.58 1006.36 1007.11 1007.80 1008.44 1009.02 1009.54 1010.02 1010.45 1010.85 1011.22 1011.56 1011.87 1012.14 1012.37 1012.54 1012.65 1012.68 1012.65 1012.56
1008.45 1008.25 1008.09 1007.92 1007.70 1007.40 1006.98 1006.43 1005.76 1005.01 1004.21 1003.41 1002.67 1002.05 1001.59 1001.32 1001.26 1001.40 1001.74 1002.24 1002.87 1003.59 1004.35 1005.12 1005.87 1006.58 1007.23 1007.81 1008.33 1008.79 1009.21 1009.60 1009.96 1010.32 1010.66 1010.98 1011.29 1011.55 1011.77 1011.93 1012.03 1012.05 1012.00 1011.90
1007.57 1007.36 1007.23 1007.12 1006.99 1006.78 1006.47 1006.03 1005.47 1004.81 1004.09 1003.36 1002.69 1002.14 1001.75 1001.55 1001.57 1001.79 1002.21 1002.78 1003.46 1004.20 1004.95 1005.68 1006.36 1006.97 1007.49 1007.93 1008.31 1008.65 1008.95 1009.25 1009.54 1009.84 1010.15 1010.46 1010.75 1011.01 1011.22 1011.37 1011.45 1011.47 1011.42 1011.32
1006.59 1006.40 1006.31 1006.27 1006.23 1006.14 1005.95 1005.65 1005.22 1004.69 1004.10 1003.49 1002.93 1002.48 1002.19 1002.10 1002.20 1002.51 1002.99 1003.61 1004.31 1005.05 1005.76 1006.43 1007.00 1007.48 1007.87 1008.17 1008.41 1008.62 1008.82 1009.03 1009.26 1009.51 1009.79 1010.08 1010.36 1010.61 1010.81 1010.96 1011.03 1011.04 1010.98 1010.89
1005.65 1005.48 1005.44 1005.47 1005.53 1005.56 1005.52 1005.36 1005.09 1004.72 1004.28 1003.82 1003.41 1003.09 1002.92 1002.93 1003.13 1003.51 1004.04 1004.68 1005.38 1006.07 1006.72 1007.29 1007.76 1008.11 1008.36 1008.53 1008.65 1008.75 1008.86 1009.00 1009.18 1009.41 1009.67 1009.95 1010.22 1010.46 1010.64 1010.77 1010.83 1010.82 1010.76 1010.67
1004.84 1004.71 1004.71 1004.82 1004.98 1005.13 1005.22 1005.22 1005.12 1004.92 1004.65 1004.36 1004.10 1003.93 1003.89 1004.00 1004.28 1004.71 1005.27 1005.90 1006.56 1007.20 1007.76 1008.23 1008.58 1008.81 1008.94 1009.00 1009.03 1009.05 1009.10 1009.20 1009.36 1009.57 1009.83 1010.10 1010.36 1010.58 1010.75 1010.86 1010.89 1010.86 1010.78 1010.67
1004.24 1004.14 1004.19 1004.37 1004.62 1004.88 1005.10 1005.25 1005.31 1005.28 1005.18 1005.06 1004.96 1004.93 1005.01 1005.21 1005.55 1006.01 1006.57 1007.17 1007.78 1008.33 1008.80 1009.17 1009.41 1009.54 1009.58 1009.57 1009.53 1009.51 1009.54 1009.63 1009.78 1009.99 1010.25 1010.51 1010.76 1010.97 1011.12 1011.19 1011.19 1011.13 1011.02 1010.88
1003.88 1003.81 1003.91 1004.14 1004.46 1004.81 1005.14 1005.42 1005.63 1005.75 1005.82 1005.85 1005.90 1005.99 1006.17 1006.45 1006.83 1007.30 1007.83 1008.38 1008.92 1009.39 1009.77 1010.05 1010.20 1010.26 1010.25 1010.19 1010.13 1010.10 1010.12 1010.22 1010.38 1010.60 1010.86 1011.12 1011.36 1011.55 1011.66 1011.70 1011.66 1011.56 1011.41 1011.23
1003.80 1003.74 1003.86 1004.13 1004.50 1004.92 1005.34 1005.73 1006.05 1006.30 1006.50 1006.67 1006.83 1007.03 1007.28 1007.61 1008.01 1008.47 1008.96 1009.46 1009.92 1010.32 1010.62 1010.82 1010.92 1010.93 1010.89 1010.82 1010.76 1010.74 1010.78 1010.90 1011.07 1011.31 1011.56 1011.81 1012.03 1012.19 1012.27 1012.27 1012.20 1012.05 1011.86 1011.64
1003.97 1003.93 1004.07 1004.35 1004.75 1005.21 1005.68 1006.13 1006.54 1006.89 1007.19 1007.45 1007.71 1007.98 1008.28 1008.63 1009.03 1009.47 1009.92 1010.36 1010.75 1011.08 1011.32 1011.47 1011.54 1011.53 1011.48 1011.42 1011.38 1011.38 1011.44 1011.57 1011.76 1011.99 1012.24 1012.47 1012.66 1012.79 1012.84 1012.80 1012.68 1012.50 1012.27 1012.01
1004.41 1004.38 1004.51 1004.79 1005.19 1005.66 1006.15 1006.64 1007.09 1007.50 1007.86 1008.19 1008.50 1008.81 1009.14 1009.50 1009.89 1010.29 1010.70 1011.08 1011.42 1011.69 1011.89 1012.01 1012.06 1012.05 1012.01 1011.97 1011.95 1011.98 1012.06 1012.19 1012.38 1012.59 1012.81 1013.01 1013.17 1013.26 1013.26 1013.19 1013.04 1012.83 1012.57 1012.28
1005.09 1005.06 1005.19 1005.45 1005.83 1006.28 1006.77 1007.25 1007.71 1008.14 1008.53 1008.89 1009.22 1009.55 1009.89 1010.24 1010.61 1010.98 1011.34 1011.68 1011.97 1012.21 1012.38 1012.48 1012.53 1012.53 1012.51 1012.49 1012.49 1012.52 1012.61 1012.73 1012.90 1013.08 1013.26 1013.41 1013.52 1013.57 1013.54 1013.43 1013.26 1013.03 1012.75 1012.44
1005.98 1005.96 1006.07 1006.31 1006.66 1007.07 1007.52 1007.97 1008.41 1008.83 1009.22 1009.57 1009.91 1010.24 1010.57 1010.91 1011.25 1011.59 1011.92 1012.22 1012.48 1012.69 1012.85 1012.95 1013.00 1013.01 1013.01 1013.00 1013.01 1013.05 1013.12 1013.22 1013.34 1013.48 1013.61 1013.70 1013.76 1013.76 1013.69 1013.56 1013.36 1013.12 1012.83 1012.51
1007.04 1007.03 1007.13 1007.34 1007.64 1008.00 1008.39 1008.79 1009.19 1009.57 1009.93 1010.28 1010.60 1010.92 1011.24 1011.56 1011.88 1012.19 1012.49 1012.76 1013.00 1013.20 1013.35 1013.45 1013.51 1013.54 1013.55 1013.55 1013.56 1013.58 1013.63 1013.69 1013.77 1013.84 1013.91 1013.95 1013.95 1013.90 1013.80 1013.64 1013.42 1013.17 1012.87 1012.54
1008.20 1008.20 1008.29 1008.47 1008.72 1009.02 1009.34 1009.69 1010.03 1010.36 1010.69 1011.00 1011.31 1011.61 1011.92 1012.22 1012.52 1012.82 1013.10 1013.36 1013.59 1013.77 1013.92 1014.02 1014.09 1014.12 1014.14 1014.14 1014.14 1014.15 1014.16 1014.19 1014.21 1014.23 1014.24 1014.22 1014.17 1014.07 1013.93 1013.75 1013.52 1013.25 1012.93 1012.59
1009.36 1009.39 1009.48 1009.62 1009.82 1010.06 1010.32 1010.59 1010.87 1011.16 1011.45 1011.74 1012.03 1012.32 1012.62 1012.91 1013.21 1013.50 1013.77 1014.01 1014.23 1014.41 1014.55 1014.65 1014.72 1014.76 1014.77 1014.77 1014.76 1014.75 1014.73 1014.72 1014.70 1014.67 1014.62 1014.56 1014.46 1014.33 1014.16 1013.95 1013.70 1013.41 1013.08 1012.72
1010.46 1010.51 1010.59 1010.71 1010.86 1011.03 1011.23 1011.45 1011.68 1011.93 1012.18 1012.45 1012.74 1013.03 1013.32 1013.62 1013.92 1014.20 1014.47 1014.70 1014.91 1015.08 1015.21 1015.31 1015.37 1015.40 1015.41 1015.40 1015.38 1015.35 1015.31 1015.26 1015.21 1015.15 1015.07 1014.97 1014.84 1014.68 1014.49 1014.26 1013.99 1013.68 1013.33 1012.95
1011.39 1011.46 1011.55 1011.64 1011.75 1011.88 1012.02 1012.19 1012.39 1012.61 1012.85 1013.12 1013.41 1013.71 1014.02 1014.32 1014.63 1014.91 1015.17 1015.40 1015.59 1015.74 1015.86 1015.94 1015.98 1016.00 1016.00 1015.98 1015.94 1015.90 1015.85 1015.79 1015.73 1015.65 1015.55 1015.43 1015.28 1015.11 1014.90 1014.66 1014.37 1014.05 1013.68 1013.27
1012.10 1012.19 1012.28 1012.36 1012.44 1012.53 1012.65 1012.79 1012.97 1013.18 1013.43 1013.71 1014.02 1014.34 1014.67 1014.99 1015.30 1015.59 1015.84 1016.05 1016.22 1016.35 1016.44 1016.50 1016.52 1016.52 1016.50 1016.46 1016.42 1016.37 1016.32 1016.25 1016.19 1016.10 1016.01 1015.89 1015.74 1015.56 1015.35 1015.10 1014.81 1014.48 1014.09 1013.66
Thickness
5714 5723 5724 5725 5730 5732 5725 5721 5715 5726 5734 5749 5760 5766 5769 5772 5772 5769 5766 5765 5763 5759 5756 5753 5750 5747 5745 5741 5739 5737 5733 5729 5727 5726 5723 5721 5719 5716 5714 5712 5710 5707 5704 5702
5704 5717 5721 5722 5731 5733 5732 5733 5731 5735 5739 5759 5767 5770 5769 5770 5773 5770 5769 5768 5767 5764 5760 5756 5753 5750 5747 5744 5741 5739 5735 5731 5729 5725 5722 5720 5717 5715 5712 5709 5707 5704 5702 5699
5685 5702 5708 5704 5724 5729 5731 5736 5734 5728 5741 5755 5758 5764 5768 5770 5773 5774 5774 5772 5770 5769 5766 5763 5760 5756 5751 5748 5744 5739 5736 5733 5729 5726 5722 5719 5717 5713 5710 5707 5704 5701 5699 5696
5675 5684 5676 5707 5729 5732 5730 5734 5739 5741 5747 5752 5759 5768 5774 5774 5774 5777 5777 5776 5775 5773 5771 5768 5766 5761 5757 5751 5745 5741 5737 5733 5730 5726 5722 5718 5714 5711 5708 5705 5701 5698 5696 5693
5666 5668 5680 5705 5718 5721 5719 5721 5733 5735 5743 5751 5760 5763 5765 5774 5776 5779 5781 5782 5780 5778 5775 5771 5767 5764 5757 5751 5746 5741 5737 5734 5731 5727 5722 5717 5712 5709 5706 5702 5699 5696 5693 5690
5666 5665 5666 5693 5713 5725 5721 5710 5728 5731 5736 5743 5748 5739 5751 5770 5775 5776 5778 5780 5779 5778 5774 5769 5767 5763 5756 5750 5746 5742 5740 5737 5732 5727 5722 5716 5712 5708 5704 5700 5697 5694 5691 5688
5660 5661 5674 5695 5709 5718 5697 5704 5721 5726 5731 5735 5737 5741 5755 5768 5772 5773 5775 5776 5776 5774 5771 5769 5767 5762 5754 5750 5747 5746 5742 5736 5731 5726 5722 5716 5711 5706 5702 5698 5694 5690 5687 5685
5656 5655 5666 5692 5697 5694 5697 5710 5717 5722 5727 5730 5736 5746 5755 5764 5767 5768 5770 5772 5772 5769 5767 5767 5766 5761 5754 5750 5750 5745 5739 5733 5728 5723 5719 5714 5707 5702 5698 5694 5689 5685 5682 5679
5658 5663 5680 5688 5690 5696 5701 5704 5712 5717 5722 5726 5731 5738 5746 5753 5757 5762 5766 5767 5767 5766 5763 5761 5761 5759 5753 5751 5746 5740 5733 5729 5724 5719 5715 5711 5704 5698 5693 5689 5685 5681 5677 5674
5660 5668 5678 5684 5689 5695 5700 5703 5711 5715 5719 5723 5725 5732 5738 5744 5748 5754 5757 5759 5760 5759 5756 5753 5754 5754 5751 5747 5742 5736 5729 5724 5719 5714 5709 5705 5700 5696 5690 5685 5680 5676 5673 5670
5657 5668 5675 5681 5686 5692 5698 5703 5707 5711 5716 5719 5722 5726 5731 5736 5740 5746 5749 5751 5752 5750 5747 5745 5746 5744 5742 5738 5734 5728 5723 5718 5713 5709 5704 5699 5695 5692 5689 5685 5682 5676 5672 5668
5657 5667 5668 5674 5685 5691 5693 5697 5702 5705 5708 5713 5717 5719 5723 5727 5731 5736 5739 5741 5740 5738 5737 5736 5735 5733 5732 5731 5727 5721 5714 5710 5706 5702 5697 5692 5688 5684 5683 5680 5677 5673 5670 5666
5668 5674 5674 5679 5685 5689 5690 5693 5697 5699 5702 5705 5709 5713 5716 5718 5721 5724 5727 5728 5727 5726 5725 5725 5723 5722 5720 5719 5716 5712 5707 5703 5699 5694 5690 5685 5681 5676 5671 5669 5668 5666 5663 5659
5670 5672 5670 5674 5676 5682 5684 5687 5689 5691 5694 5697 5700 5703 5706 5708 5710 5712 5713 5716 5717 5716 5714 5713 5711 5709 5710 5709 5705 5701 5697 5694 5690 5686 5682 5678 5674 5670 5666 5661 5657 5656 5655 5652
5664 5666 5666 5669 5671 5673 5676 5678 5679 5680 5682 5685 5688 5690 5693 5694 5695 5697 5700 5703 5705 5703 5700 5700 5698 5696 5698 5698 5694 5691 5687 5683 5680 5677 5674 5670 5667 5663 5658 5655 5651 5648 5645 5644
5657 5659 5660 5661 5661 5663 5666 5668 5669 5670 5672 5674 5676 5679 5681 5682 5683 5684 5686 5689 5688 5685 5685 5685 5684 5684 5686 5685 5682 5678 5676 5674 5670 5666 5663 5660 5657 5653 5649 5645 5641 5638 5636 5634
5648 5647 5649 5650 5652 5654 5656 5658 5660 5662 5664 5665 5666 5669 5671 5671 5671 5671 5671 5673 5673 5672 5671 5671 5671 5672 5672 5672 5669 5666 5664 5662 5659 5655 5651 5649 5645 5642 5639 5635 5631 5629 5626 5624
5645 5645 5646 5645 5646 5647 5648 5649 5651 5653 5655 5657 5658 5658 5658 5658 5657 5658 5658 5659 5659 5658 5658 5658 5659 5659 5659 5658 5657 5654 5651 5649 5646 5643 5640 5637 5634 5631 5627 5624 5620 5617 5614 5612
5638 5638 5638 5639 5640 5640 5640 5640 5642 5644 5646 5647 5647 5645 5646 5646 5646 5646 5647 5647 5646 5643 5643 5646 5647 5647 5646 5645 5644 5642 5639 5636 5633 5630 5628 5625 5622 5619 5615 5612 5609 5606 5603 5600
5627 5629 5631 5632 5632 5632 5632 5632 5633 5634 5635 5637 5636 5635 5634 5634 5635 5635 5634 5632 5632 5632 5633 5634 5634 5633 5633 5632 5632 5629 5626 5623 5620 5617 5615 5613 5610 5607 5603 5600 5598 5595 5591 5588
5616 5618 5620 5622 5622 5623 5624 5624 5625 5624 5625 5627 5626 5625 5624 5623 5623 5623 5621 5619 5619 5622 5623 5624 5623 5621 5620 5619 5618 5615 5613 5610 5607 5604 5602 5599 5597 5593 5590 5587 5585 5582 5578 5575
5605 5607 5609 5611 5611 5611 5613 5614 5615 5615 5616 5616 5616 5615 5614 5612 5611 5610 5610 5609 5610 5612 5612 5611 5610 5610 5608 5607 5604 5602 5600 5597 5594 5591 5588 5586 5583 5580 5577 5574 5571 5568 5565 5561
5595 5597 5599 5600 5601 5601 5602 5603 5604 5604 5604 5604 5604 5603 5602 5600 5599 5599 5596 5598 5600 5601 5600 5599 5598 5597 5596 5593 5591 5588 5586 5583 5580 5577 5574 5571 5569 5566 5563 5560 5556 5553 5550 5546
5586 5587 5589 5591 5593 5592 5591 5591 5592 5593 5593 5594 5593 5592 5591 5589 5588 5588 5588 5589 5589 5589 5587 5586 5586 5584 5583 5579 5576 5574 5571 5568 5566 5563 5560 5557 5554 5551 5548 5545 5542 5539 5535 5532
5577 5579 5580 5581 5580 5580 5581 5582 5582 5582 5582 5581 5581 5580 5580 5579 5577 5576 5577 5577 5577 5577 5575 5574 5572 5571 5569 5565 5562 5559 5556 5553 5551 5547 5544 5540 5537 5534 5531 5528 5526 5523 5520 5516
5567 5568 5568 5569 5570 5570 5571 5571 5570 5569 5569 5569 5569 5569 5568 5568 5567 5566 5566 5566 5565 5564 5562 5561 5559 5557 5554 5551 5548 5545 5542 5538 5535 5532 5529 5525 5522 5519 5516 5513 5510 5507 5504 5501
5558 5558 5559 5559 5560 5561 5561 5560 5559 5558 5558 5557 5556 5556 5556 5556 5555 5555 5554 5553 5552 5550 5549 5547 5546 5543 5540 5537 5534 5531 5527 5523 5520 5516 5513 5510 5507 5503 5501 5499 5496 5493 5490 5488